Hourly Data

Hourly Data Report for July 21, 2014

All times are specified in Local Standard Time (LST). Add 1 hour to adjust for Daylight Saving Time where and when it is observed.

Metadata including Station Name, Province, Latitude, Longitude, Elevation, Climate ID, WMO ID, TC ID
LUNENBURG
NOVA SCOTIA
Latitude: 44°21'36.094" N Longitude: 64°17'46.082" W Elevation: 3.80 m
Climate ID: 8203210 WMO ID: TC ID: XLB
Hourly Data Report for July 21, 2014
Temp Definition
°C

Dew Point Temp Definition
°C

Rel Hum Definition
%

Wind Dir Definition
10's deg
Wind Spd Definition
km/h

Visibility Definition
km

Stn Press Definition
kPa

Hmdx Definition

Wind Chill Definition

Weather Definition

00:00 16.7 LegendMM LegendMM 3 1 102.27 LegendNANA
01:00 16.5 LegendMM LegendMM 5 7 102.22 LegendNANA
02:00 16.6 LegendMM LegendMM 7 10 102.19 LegendNANA
03:00 16.8 LegendMM LegendMM 7 16 102.15 LegendNANA
04:00 16.8 LegendMM LegendMM 6 9 102.19 LegendNANA
05:00 16.3 LegendMM LegendMM 8 10 102.22 LegendNANA
06:00 16.5 LegendMM LegendMM 7 9 102.22 LegendNANA
07:00 17.0 LegendMM LegendMM LegendMM 1 102.28 LegendNANA
08:00 17.2 LegendMM LegendMM 9 7 102.27 LegendNANA
09:00 17.0 LegendMM LegendMM 7 7 102.23 LegendNANA
10:00 16.5 LegendMM LegendMM 18 6 102.23 LegendNANA
11:00 17.5 LegendMM LegendMM 33 9 102.20 LegendNANA
12:00 16.5 LegendMM LegendMM 33 18 102.17 LegendNANA
13:00 16.3 LegendMM LegendMM 33 18 102.16 LegendNANA
14:00 15.6 LegendMM LegendMM 33 14 102.17 LegendNANA
15:00 16.2 LegendMM LegendMM 33 12 102.11 LegendNANA
16:00 16.6 LegendMM LegendMM 33 13 102.08 LegendNANA
17:00 16.3 LegendMM LegendMM 33 12 102.04 LegendNANA
18:00 15.9 LegendMM LegendMM 33 13 102.00 LegendNANA
19:00 15.7 LegendMM LegendMM 33 12 102.00 LegendNANA
20:00 15.6 LegendMM LegendMM 33 10 102.01 LegendNANA
21:00 15.6 LegendMM LegendMM 33 6 102.06 LegendNANA
22:00 15.5 LegendMM LegendMM 35 3 102.06 LegendNANA
23:00 15.9 LegendMM LegendMM 34 4 102.03 LegendNANA

Notes on Data Quality.

Legend
  • M = Missing
  • E = Estimated
  • NA = Not Available
  • ‡ = Partner data that is not subject to review by the National Climate Archives